Left ArrowRight Arrow

30.00354, -91.81873

Hourly Observations for June 16, 2024

Temp ( °F °C ) Dew Point ( °F °C ) Humidity (%) Winds ( mph kmh ) Pressure ( in mb ) Visibility ( mi km ) Precip ( " mm )
12:53 am 00:53 Clear 78 25.6 72 22.2 82 82 E 3 6 29.90 1012 10 16 0.00 0.00
1:53 am 01:53 Clear 76 24.4 73 22.8 91 91 Calm 29.90 1012 10 16 0.00 0.00
2:53 am 02:53 Clear 76 24.4 73 22.8 91 91 ENE 3 6 29.89 1012 10 16 0.00 0.00
3:53 am 03:53 Clear 77 25 73 22.8 88 88 E 5 7 29.89 1012 10 16 0.00 0.00
4:53 am 04:53 Clear 76 24.4 73 22.8 91 91 E 5 7 29.89 1012 10 16 0.00 0.00
5:53 am 05:53 Clear 76 24.4 74 23.3 94 94 ENE 3 6 29.90 1013 10 16 0.00 0.00
6:53 am 06:53 Sunny 79 26.1 76 24.4 90 90 NE 5 7 29.91 1013 9 14 0.00 0.00
7:53 am 07:53 Sunny 81 27.2 76 24.4 85 85 ENE 7 11 29.91 1013 10 16 0.00 0.00
8:53 am 08:53 Sunny 85 29.4 77 25 77 77 E 8 13 29.92 1013 10 16 0.00 0.00
9:53 am 09:53 Partly Cloudy 88 31.1 77 25 70 70 E 5 7 29.91 1013 10 16 0.00 0.00
10:53 am 10:53 Partly Cloudy 88 31.1 76 24.4 68 68 ENE 9 15 29.91 1013 10 16 0.00 0.00
11:53 am 11:53 Mostly Cloudy 93 33.9 75 23.9 56 56 VRB 6 9 29.90 1013 10 16 0.00 0.00
12:53 pm 12:53 Mostly Cloudy with Nearby Thunderstorms 91 32.8 76 24.4 61 61 SE 14 22 29.89 1012 10 16 0.00 0.00
1:30 pm 13:30 Sunny with Thunderstorms 91 32.8 76 24.4 61 61 E 16 26 29.90 1012 10 16 0.00 0.00
1:53 pm 13:53 Sunny with Thunderstorms 88 31.1 73 22.8 61 61 E 10 17 29.89 1012 10 16 0.00 0.00
2:07 pm 14:07 Mostly Cloudy with Nearby Thunderstorms 87 30.6 75 23.9 68 68 ESE 14 22 29.90 1012 10 16 0.00 0.00
2:18 pm 14:18 Mostly Cloudy with Thunderstorms 84 28.9 75 23.9 74 74 SSW 9 15 29.91 1013 10 16 0.00 0.00
2:31 pm 14:31 Cloudy with Thunderstorms 77 25 74 23.3 90 90 SE 18 30 29.92 1013 2 2 0.07 1.78
2:40 pm 14:40 Mostly Cloudy with Strong Thunderstorms 78 25.6 76 24.4 93 93 NE 7 11 29.93 1013 1 1 0.29 7.37
2:45 pm 14:45 Cloudy with Strong Thunderstorms 78 25.6 76 24.4 93 93 N 12 19 29.93 1013 1 2 0.34 8.64
2:53 pm 14:53 Cloudy with Thunderstorms 77 25 76 24.4 96 96 NNE 7 11 29.91 1013 3 5 0.35 8.89
3:15 pm 15:15 Cloudy with Nearby Thunderstorms 77 25 74 23.3 90 90 N 10 17 29.92 1013 10 16 0.01 0.13
3:26 pm 15:26 Mostly Cloudy with Nearby Thunderstorms 77 25 75 23.9 94 94 N 10 17 29.91 1013 10 16 0.01 0.13
3:53 pm 15:53 Sunny 77 25 74 23.3 90 90 Calm 29.90 1012 10 16 0.01 0.13
4:33 pm 16:33 Mostly Cloudy 79 26.1 75 23.9 88 88 E 3 6 29.92 1013 10 16 0.00 0.00
4:41 pm 16:41 Partly Cloudy 79 26.1 75 23.9 88 88 E 6 9 29.91 1013 10 16 0.00 0.00
4:53 pm 16:53 Mostly Sunny 80 26.7 76 24.4 87 87 Calm 29.91 1013 10 16 0.00 0.00
5:53 pm 17:53 Sunny 81 27.2 76 24.4 85 85 ESE 7 11 29.88 1012 10 16 0.00 0.00
6:53 pm 18:53 Sunny 82 27.8 77 25 85 85 ESE 10 17 29.89 1012 10 16 0.00 0.00
7:53 pm 19:53 Sunny 81 27.2 78 25.6 91 91 ENE 6 9 29.91 1013 10 16 0.00 0.00
8:53 pm 20:53 Cloudy 81 27.2 78 25.6 91 91 E 7 11 29.91 1013 10 16 0.00 0.00
9:53 pm 21:53 Mostly Cloudy 81 27.2 76 24.4 85 85 SE 10 17 29.91 1013 10 16 0.00 0.00
10:53 pm 22:53 Clear 79 26.1 75 23.9 88 88 SE 8 13 29.92 1013 10 16 0.00 0.00
11:53 pm 23:53 Clear 79 26.1 76 24.4 90 90 SE 9 15 29.92 1013 10 16 0.00 0.00

Powered by Vaisala Xweather